星链-30814 (STARLINK-30814 )

导读

STARLINK-30814是美国太空探索技术公司SpaceX星链星座的一员,于2023年10月29日发射升空,归属星链Gen2系列。它依托猎鹰九号火箭完成部署,进入近地轨道运行,承担全球卫星互联网星座的通信组网任务,为地面用户提供低延迟宽带互联网接入服务,服务覆盖全球偏远地区,推动星链组网规模持续扩张。

基本信息
目录编号:
58165
目录名称:
STARLINK-30814
国际标识:
2023-166R
轨道中心:
EARTH
卫星名称:
星链-30814
卫星全名:
星链-30814 (STARLINK-30814 )
卫星状态:
在轨 (已飞行963 天)
发射日期:
2023-10-29 UTC
国别 :
美国 (US)
星等 :
--
轨道信息
数据来源 国际轨道数据 AOE轨道数据
星历时间 2026-06-17T10:25:52+0800
1天前
查看轨道信息
2026-06-14T03:00:00+0800
4天前
查看轨道信息
半长轴 6853.37km 6853.38km
偏心率 0.0001379 0.000253
轨道倾角 53.160° 53.156°
近地点辐角 97.111° 150.649°
升交点赤经 117.576° 132.935°
平近点角 263.005° 327.598°
近地点 474.287km 473.509km
远地点 476.179km 476.977km
周期 94.106分钟 94.106分钟
每日圈数 15.301943 15.301909
详细信息
固有亮度:
5
最大亮度:
0.3
卫星平台:
Starlink v2.0 mini
覆盖范围:
全球
运营商:
太空探索技术公司
运营商所在国:
美国
制造商(研发单位):
太空探索技术公司
制造商所在国:
美国
使用方式:
暂无
卫星简介
星链(Starlink)计划是由太空探索技术公司(SpaceX)提出的一个巨型低轨卫星互联网星座项目,计划在2019年至2024年间在太空搭建由约1.2万颗卫星组成的“星链”网络,其中1584颗将部署在地球上空550千米处的近地轨道,并从2020年开始工作。该卫星仍在工作。
2D轨道图
3D轨道图
轨道高度分析图
轨道倾角分析图
轨道综合分析图
查看轨道综合分析图